Stations météo

Publicité
Cannes, France (7684): Température de l'air & dewpoint: 25.10.2020 23:00:00 - 31.10.2020 23:00:00 (CET)Cannes, France (7684): Température de l'air 5cm: 25.10.2020 23:00:00 - 31.10.2020 23:00:00 (CET)Cannes, France (7684): Vitesse du vent & gusts: 25.10.2020 23:00:00 - 31.10.2020 23:00:00 (CET)Cannes, France (7684): Direction du vent: 25.10.2020 23:00:00 - 31.10.2020 23:00:00 (CET)Cannes, France (7684): reduced air pressure: 25.10.2020 23:00:00 - 31.10.2020 23:00:00 (CET)Cannes, France (7684): visibility: 25.10.2020 23:00:00 - 31.10.2020 23:00:00 (CET)Cannes, France (7684): Quantités de précipitations: 25.10.2020 23:00:00 - 31.10.2020 23:00:00 (CET)
Date & Time tt [°C] td [°C] tt 5cm [°C] ff [km/h] ff [knt] fx [km/h] fx [knt] dd ppp [hPa] vv [km] rr [mm]
31.10.2020 23:00:00 15,0 13,9 13,7 5 3 7 4 N 1023,5 9 0,0
31.10.2020 22:00:00 15,3 13,8 14,1 4 2 6 3 N 1023,7 9 0,0
31.10.2020 21:00:00 16,2 14,0 15,5 4 2 6 4 N 1023,6 12 0,0
31.10.2020 20:00:00 16,5 14,0 15,7 4 2 7 4 NNE 1023,2 13 0,0
31.10.2020 19:00:00 16,5 13,8 14,6 0 0 6 3 N 1023,3 19 0,0
31.10.2020 18:00:00 16,1 13,6 13,9 3 2 11 6 S 1023,3 58 0,0
31.10.2020 17:00:00 17,5 13,8 17,4 8 4 14 7 S 1023,1 60 0,0
31.10.2020 16:00:00 17,8 13,7 18,4 8 4 16 9 SSE 1023,3 60 0,0
31.10.2020 15:00:00 18,9 13,3 20,7 11 6 18 10 S 1023,4 60 0,0
31.10.2020 14:00:00 18,7 12,2 19,0 3 2 13 7 NNE 1023,7 46 0,0
31.10.2020 13:00:00 17,6 11,8 18,6 10 5 16 9 W 1024,5 60 0,0
31.10.2020 12:00:00 17,8 12,3 18,7 4 2 13 7 NW 1025,1 60 0,0
31.10.2020 11:00:00 17,3 13,0 18,3 2 1 9 5 WNW 1025,4 55 0,0
31.10.2020 10:00:00 16,1 12,5 16,5 5 3 12 6 N 1025,4 18 0,0
31.10.2020 09:00:00 14,8 11,9 13,9 9 5 15 8 N 1025,5 48 0,0
31.10.2020 08:00:00 13,6 11,3 13,0 7 4 17 9 N 1025,3 50 0,0
31.10.2020 07:00:00 13,3 11,4 13,1 10 6 16 9 N 1024,7 20 0,0
31.10.2020 06:00:00 13,7 11,6 13,5 8 4 17 9 N 1024,7 54 0,0
31.10.2020 05:00:00 13,9 11,8 13,6 9 5 15 8 N 1024,9 52 0,0
31.10.2020 04:00:00 14,1 12,3 13,8 7 4 13 7 N 1024,8 41 0,0
31.10.2020 03:00:00 14,6 13,1 14,3 6 3 11 6 N 1024,8 32 0,0
31.10.2020 02:00:00 15,6 13,6 15,1 5 3 9 5 N 1025,0 19 0,0
31.10.2020 01:00:00 15,8 13,8 15,2 6 3 10 5 NNE 1025,3 19 0,0
31.10.2020 00:00:00 15,7 14,2 15,1 3 2 7 4 N 1025,4 13 0,0
30.10.2020 23:00:00 15,8 14,2 15,0 3 2 6 3 NNE 1025,3 18 0,0
30.10.2020 22:00:00 16,0 14,0 14,9 2 1 5 3 NNE 1025,1 17 0,0
30.10.2020 21:00:00 16,1 13,8 14,8 2 1 4 2 NNE 1024,9 17 0,0
30.10.2020 20:00:00 16,3 14,0 15,4 3 2 5 3 N 1024,6 18 0,0
30.10.2020 19:00:00 16,6 14,2 14,8 3 2 5 3 N 1024,6 18 0,0
30.10.2020 18:00:00 16,4 13,9 14,3 0 0 5 3 N 1024,2 60 0,0
30.10.2020 17:00:00 16,8 13,9 16,4 5 3 14 8 S 1023,9 60 0,0
30.10.2020 16:00:00 18,3 14,0 22,6 8 4 16 9 SSE 1023,7 57 0,0
30.10.2020 15:00:00 18,8 14,1 24,3 11 6 20 11 S 1023,6 60 0,0
30.10.2020 14:00:00 19,0 14,7 20,8 11 6 19 11 SSE 1023,7 60 0,0
30.10.2020 13:00:00 19,6 14,0 20,8 11 6 16 8 S 1024,0 60 0,0
30.10.2020 12:00:00 19,5 13,7 25,8 8 5 14 8 S 1024,3 52 0,0
30.10.2020 11:00:00 19,3 12,8 25,4 7 4 12 6 S 1024,7 60 0,0
30.10.2020 10:00:00 16,4 11,5 16,7 3 2 11 6 N 1024,6 47 0,0
30.10.2020 09:00:00 12,9 10,1 13,3 7 4 16 9 N 1024,3 52 0,0
30.10.2020 08:00:00 10,8 9,1 8,7 7 4 16 9 N 1024,0 51 0,0
30.10.2020 07:00:00 9,8 8,7 8,5 8 5 13 7 N 1023,2 40 0,2
30.10.2020 06:00:00 9,9 8,8 8,3 6 3 11 6 N 1022,8 46 0,0
30.10.2020 05:00:00 10,1 9,0 8,5 5 3 14 8 N 1022,5 37 0,0
30.10.2020 04:00:00 10,3 9,2 8,9 7 4 13 7 N 1022,3 38 0,0
30.10.2020 03:00:00 10,6 9,5 9,3 6 3 12 6 N 1022,5 39 0,0
30.10.2020 02:00:00 10,8 9,9 9,6 8 4 12 7 N 1022,8 34 0,0
30.10.2020 01:00:00 10,7 9,9 9,7 6 4 15 8 N 1022,9 20 0,0
30.10.2020 00:00:00 11,1 10,2 9,9 6 4 13 7 N 1022,7 17 0,0
29.10.2020 23:00:00 11,6 10,7 10,5 9 5 16 8 N 1022,7 18 0,0
29.10.2020 22:00:00 12,1 11,2 10,6 6 3 11 6 NNE 1022,0 17 0,0
29.10.2020 21:00:00 12,7 11,6 11,5 6 3 11 6 N 1021,4 14 0,0
29.10.2020 20:00:00 13,4 12,1 11,8 5 3 11 6 N 1020,9 8 0,0
29.10.2020 19:00:00 14,4 12,4 12,8 5 3 7 4 N 1020,6 19 0,0
29.10.2020 18:00:00 16,0 12,9 13,5 3 2 6 4 NE 1020,1 48 0,0
29.10.2020 17:00:00 17,8 12,7 16,6 3 1 6 3 NW 1019,6 60 0,0
29.10.2020 16:00:00 18,9 12,4 20,1 0 0 8 4 N 1019,8 40 0,0
29.10.2020 15:00:00 18,9 12,2 20,9 2 1 6 4 N 1019,4 60 0,0
29.10.2020 14:00:00 18,0 12,2 20,0 0 0 11 6 N 1019,3 60 0,0
29.10.2020 13:00:00 17,5 12,0 19,4 6 3 11 6 S 1019,1 60 0,0
29.10.2020 12:00:00 18,2 12,9 21,9 2 1 9 5 SW 1019,5 60 0,0
29.10.2020 11:00:00 16,4 11,8 15,4 3 2 13 7 NNE 1019,2 39 0,0
29.10.2020 10:00:00 13,7 10,7 12,3 6 3 13 7 N 1018,6 20 0,0
29.10.2020 09:00:00 12,1 10,2 10,2 7 4 14 7 N 1018,4 59 0,0
29.10.2020 08:00:00 10,7 9,5 8,9 5 3 11 6 N 1018,1 20 0,0
29.10.2020 07:00:00 10,2 9,3 8,3 5 3 10 6 N 1017,8 60 0,0
29.10.2020 06:00:00 10,0 9,1 8,7 6 4 16 8 N 1017,5 39 0,0
29.10.2020 05:00:00 10,3 9,4 8,7 9 5 13 7 NNE 1017,3 40 0,0
29.10.2020 04:00:00 10,2 9,4 7,0 6 3 9 5 NNE 1016,9 20 0,0
29.10.2020 03:00:00 9,1 8,3 6,9 2 1 9 5 NW 1017,2 20 0,0
29.10.2020 02:00:00 10,0 9,1 6,0 0 0 9 5 N 1017,4 34 0,0
29.10.2020 01:00:00 9,9 9,0 6,7 5 3 10 5 N 1017,5 20 0,0
29.10.2020 00:00:00 10,2 9,4 7,2 0 0 5 3 N 1018,0 18 0,0
28.10.2020 23:00:00 10,5 9,4 7,8 0 0 8 5 N 1018,3 18 0,0
28.10.2020 22:00:00 11,3 9,9 9,6 4 2 10 5 NNE 1018,3 20 0,0
28.10.2020 21:00:00 11,5 10,1 10,1 5 3 13 7 NNW 1018,6 29 0,0
28.10.2020 20:00:00 12,3 10,7 10,7 6 3 12 6 N 1018,6 32 0,0
28.10.2020 19:00:00 13,5 10,8 11,4 7 4 10 6 N 1018,4 16 0,0
28.10.2020 18:00:00 15,4 11,0 12,5 4 2 11 6 N 1017,6 55 0,0
28.10.2020 17:00:00 18,1 10,9 18,8 7 4 14 8 NNE 1017,2 60 0,0
28.10.2020 16:00:00 19,2 9,9 22,2 6 3 15 8 ESE 1016,9 60 0,0
28.10.2020 15:00:00 19,5 10,2 23,6 8 4 18 10 SSE 1017,0 59 0,0
28.10.2020 14:00:00 19,2 11,0 20,0 12 7 27 14 SSE 1017,1 60 0,0
28.10.2020 13:00:00 19,7 7,4 20,4 13 7 22 12 WSW 1017,5 60 0,0
28.10.2020 12:00:00 18,6 9,1 23,6 10 5 18 10 SE 1017,9 57 0,0
28.10.2020 11:00:00 18,0 12,0 23,3 6 4 13 7 S 1018,5 59 0,0
28.10.2020 10:00:00 15,6 7,9 18,4 5 3 16 9 N 1018,4 51 0,0
28.10.2020 09:00:00 12,2 6,9 12,0 9 5 17 9 N 1018,3 50 0,0
28.10.2020 08:00:00 9,1 6,0 6,8 9 5 16 9 N 1018,4 44 0,0
28.10.2020 07:00:00 7,9 5,7 6,7 8 4 15 8 N 1017,6 18 0,0
28.10.2020 06:00:00 7,9 5,9 6,7 7 4 16 9 N 1017,5 20 0,0
28.10.2020 05:00:00 7,9 5,9 6,7 8 5 14 8 N 1016,9 20 0,0
28.10.2020 04:00:00 8,4 6,0 6,9 9 5 16 9 N 1016,9 45 0,0
28.10.2020 03:00:00 8,8 5,9 7,5 9 5 15 8 N 1016,7 18 0,0
28.10.2020 02:00:00 8,8 6,1 7,7 8 4 16 9 N 1016,6 59 0,0
28.10.2020 01:00:00 8,5 6,1 6,8 9 5 16 9 N 1016,3 59 0,0
28.10.2020 00:00:00 8,2 6,0 6,9 7 4 17 9 N 1016,1 33 0,0
27.10.2020 23:00:00 8,6 6,2 6,9 5 3 14 7 N 1015,6 20 0,0
27.10.2020 22:00:00 9,1 6,7 7,0 7 4 12 6 N 1015,0 14 0,0
27.10.2020 21:00:00 9,6 7,0 8,1 6 3 13 7 N 1014,3 41 0,0
27.10.2020 20:00:00 10,5 7,6 8,8 9 5 15 8 N 1013,6 9 0,0
27.10.2020 19:00:00 11,6 7,9 9,7 8 4 14 7 N 1013,0 5 0,0
27.10.2020 18:00:00 13,4 7,8 10,9 6 4 10 6 NNE 1011,8 6 0,0
27.10.2020 17:00:00 17,1 7,2 18,5 6 3 16 9 NNW 1011,0 60 0,0
27.10.2020 16:00:00 19,0 5,1 22,4 6 3 16 9 E 1010,3 53 0,0
27.10.2020 15:00:00 19,0 4,7 23,2 8 4 15 8 ESE 1010,0 56 0,0
27.10.2020 14:00:00 18,4 4,2 19,1 9 5 18 10 ESE 1009,9 60 0,0
27.10.2020 13:00:00 18,6 3,6 19,5 8 5 19 10 SSE 1010,3 60 0,0
27.10.2020 12:00:00 18,3 3,3 24,3 3 2 10 5 ESE 1010,4 11 0,0
27.10.2020 11:00:00 17,1 5,4 23,1 4 2 11 6 E 1010,4 23 0,0
27.10.2020 10:00:00 14,6 5,9 19,5 4 2 10 6 N 1009,8 60 0,0
27.10.2020 09:00:00 11,6 4,8 11,3 4 2 13 7 NNW 1009,5 54 0,0
27.10.2020 08:00:00 8,0 4,4 3,1 4 2 13 7 N 1008,9 19 0,0
27.10.2020 07:00:00 6,9 3,7 3,0 4 2 9 5 N 1008,2 50 0,0
27.10.2020 06:00:00 7,5 4,1 3,4 3 1 11 6 NW 1007,4 20 0,0
27.10.2020 05:00:00 8,4 3,8 4,8 3 2 9 5 ENE 1006,9 60 0,0
27.10.2020 04:00:00 11,5 2,8 7,7 6 3 29 15 SE 1006,0 60 0,0
27.10.2020 03:00:00 12,7 2,0 8,0 9 5 25 13 SE 1005,2 60 0,0
27.10.2020 02:00:00 12,4 2,5 7,6 11 6 18 10 SSE 1004,9 60 0,0
27.10.2020 01:00:00 12,6 2,2 7,4 6 3 25 13 ESE 1004,6 60 0,0
27.10.2020 00:00:00 10,8 4,5 6,5 8 4 13 7 E 1004,4 60 0,0
26.10.2020 23:00:00 10,4 7,1 6,7 7 4 12 6 E 1004,5 60 0,0
26.10.2020 22:00:00 10,4 8,3 7,7 5 3 16 8 N 1004,6 12 0,0
26.10.2020 21:00:00 10,9 9,2 7,9 0 0 9 5 N 1004,6 20 0,0
26.10.2020 20:00:00 11,7 10,4 9,2 4 2 9 5 N 1004,4 42 0,0
26.10.2020 19:00:00 12,7 11,1 10,9 4 2 11 6 NNW 1004,3 5 0,0
26.10.2020 18:00:00 13,2 10,7 11,5 7 4 17 9 SSW 1003,6 60 0,0
26.10.2020 17:00:00 16,5 11,4 16,4 0 0 18 10 N 1003,3 60 0,0
26.10.2020 16:00:00 15,3 11,9 15,5 13 7 25 13 SW 1003,8 60 0,0
26.10.2020 15:00:00 15,0 11,9 15,1 10 5 24 13 SW 1003,8 60 0,0
26.10.2020 14:00:00 15,5 12,8 15,9 8 5 16 9 SW 1003,9 60 0,0
26.10.2020 13:00:00 15,9 13,2 15,2 4 2 31 17 W 1005,1 20 0,0
26.10.2020 12:00:00 15,6 12,7 15,5 16 8 46 25 WSW 1005,5 58 0,0
26.10.2020 11:00:00 16,1 13,2 15,7 18 10 33 18 WSW 1005,8 58 0,0
26.10.2020 10:00:00 16,4 14,1 15,8 13 7 19 11 SW 1004,9 60 0,0
26.10.2020 09:00:00 16,6 15,3 15,7 6 3 36 19 WSW 1004,9 17 3,6
26.10.2020 08:00:00 17,3 15,5 16,3 21 11 47 25 SW 1004,9 1,9 4,5
26.10.2020 07:00:00 18,6 16,0 15,0 19 11 35 19 S 1004,5 18 0,4
26.10.2020 06:00:00 15,1 14,5 14,7 6 3 14 8 N 1005,6 17 0,0
26.10.2020 05:00:00 15,1 14,3 14,4 8 4 18 10 NNE 1007,1 20 1,0
26.10.2020 04:00:00 14,8 14,2 13,9 10 5 21 11 N 1007,9 7 1,4
26.10.2020 03:00:00 14,3 13,7 13,2 8 5 16 9 NNE 1009,4 19 0,0
26.10.2020 02:00:00 14,5 13,7 14,1 7 4 16 8 NNE 1010,5 13 4,1
26.10.2020 01:00:00 14,5 13,4 14,0 8 4 14 8 N 1010,9 16 0,0
26.10.2020 00:00:00 14,3 13,3 14,2 7 4 15 8 N 1011,6 17 0,0
25.10.2020 23:00:00 14,4 13,6 13,9 7 4 15 8 NNE 1012,3 15 0,0

tt = Température de l'air
td = dewpoint
tt 5cm = Température de l'air 5cm
ff = Vitesse du vent
fx = gusts
dd = Direction du vent
ppp = reduced air pressure
vv = visibility
rr = Quantités de précipitations

stations d'obs. à proximité